This is the latest recevied weather packets stored in our database for station/object W4MLN-3. If no packets are shown the sender has not sent any weather packets the latest 10 day(s).
| Time | Temp. | Humidity | Pressure | Rain* | Wind** | Luminosity | Snow |
|---|---|---|---|---|---|---|---|
| 1777314624 | 18.89° C | 55% | 1021.1 hPa | 0 mm | - | - | - |
| 1777314303 | 18.89° C | 53% | 1021.2 hPa | 0 mm | - | - | - |
| 1777314025 | 18.33° C | 59% | 1021.5 hPa | 0 mm | - | - | - |
| 1777313703 | 18.33° C | 56% | 1021.5 hPa | 0 mm | - | - | - |
| 1777313403 | 17.78° C | 57% | 1021.4 hPa | 0 mm | - | - | - |
| 1777313103 | 17.78° C | 56% | 1021.4 hPa | 0 mm | - | - | - |
| 1777312803 | 17.22° C | 59% | 1021.5 hPa | 0 mm | - | - | - |
| 1777312503 | 17.22° C | 59% | 1021.5 hPa | 0 mm | - | - | - |
| 1777312224 | 16.67° C | 60% | 1021.4 hPa | 0 mm | - | - | - |
| 1777311903 | 16.67° C | 58% | 1021.6 hPa | 0 mm | - | - | - |
| 1777311625 | 16.67° C | 57% | 1021.6 hPa | 0 mm | - | - | - |
| 1777311303 | 16.67° C | 61% | 1021.6 hPa | 0 mm | - | - | - |
| 1777311004 | 16.67° C | 60% | 1021.6 hPa | 0 mm | - | - | - |
| 1777310703 | 16.67° C | 60% | 1021.6 hPa | 0 mm | - | - | - |
| 1777310404 | 16.67° C | 64% | 1021.7 hPa | 0 mm | - | - | - |
| 1777310103 | 16.11° C | 64% | 1021.9 hPa | 0 mm | - | - | - |
| 1777309803 | 15.56° C | 64% | 1021.9 hPa | 0 mm | - | - | - |
| 1777309503 | 15.56° C | 68% | 1021.9 hPa | 0 mm | - | - | - |
| 1777309203 | 15° C | 69% | 1022 hPa | 0 mm | - | - | - |
| 1777308903 | 14.44° C | 68% | 1022 hPa | 0 mm | - | - | - |
| 1777308603 | 13.89° C | 74% | 1022.1 hPa | 0 mm | - | - | - |
| 1777308303 | 13.89° C | 73% | 1022.2 hPa | 0 mm | - | - | - |
| 1777308003 | 13.33° C | 75% | 1022.3 hPa | 0 mm | - | - | - |
| 1777307724 | 13.33° C | 76% | 1022.3 hPa | 0 mm | - | - | - |
| 1777307403 | 12.78° C | 79% | 1022.4 hPa | 0 mm | - | - | - |
* Rain latest hour (hover to see other rain measurements)
** Current wind speed in m/s (hover to see current wind gust speed)